Starlink 4539

operational
NORAD ID: 53423 Int'l Des: 2022-097 Owner: SPXS Country: US Constellation: starlink
LEOCIRCULAR

关于 Starlink 4539

正在加载描述...

实时位置

正在加载3D地球...

即将过境

高度历史

Altitude vs Time

uPlot chart will show altitude changes over time

两行轨道根数

1 53423U 22097AM 26062.45090045 .00000042 00000-0 20701-4 0 9990
2 53423 53.2166 142.1387 0001219 91.5960 268.5172 15.08838342197685
Epoch: Mar 3, 2026 • Age: 24 hours

当前状态

高度 540.5 km
速度 7.60 km/s
星下点 26.53°N, 4.43°E
发射日期 Aug 10, 2022
运行时间 3.5 years
类型 internet

技术详情

分类 Payload
质量 297.00 kg
干质量 275.00 kg
总质量 297.00 kg
长度 0.20 m
直径 2.80 m
跨度 9.00 m
形状 Box + pan
制造商 SPXS
平台类型 Starlink
阶段状态 In Orbit
所有者/国家 SPXS/US

大型星座

Loading constellations...